Regional Weather Roundup
Issued by NWS

Home | Current Version | Previous Version | Text Only | Print | Product List | Glossary On
Versions: 1 2 3 4 5 6 7 8 9 10 11 12 13 14 15 16 17 18 19 20 21 22 23 24 25 26 27 28 29 30 31 32 33 34 35 36 37 38 39 40 41 42 43 44 45 46 47 48 49 50
000
ASUS43 KLOT 282210
RWRIL

ILLINOIS REGIONAL WEATHER ROUNDUP
NATIONAL WEATHER SERVICE CHICAGO/ROMEOVILLE IL
400 PM CST FRI NOV 28 2014

NOTE: "FAIR" INDICATES FEW OR NO CLOUDS BELOW 12,000 FEET WITH NO
SIGNIFICANT WEATHER AND/OR OBSTRUCTIONS TO VISIBILITY.

* THESE STATIONS ARE NOT UNDER NWS QUALITY CONTROL. THEY ALSO MAY NOT
  REPORT WEATHER SUCH AS PRECIPITATION OR FOG.

ILZ001-002-007-009-015-016-024-282300-
NORTHWEST ILLINOIS

CITY           SKY/WX    TMP DP  RH WIND       PRES   REMARKS
MOLINE         PTCLDY    35  28  75 SE5       29.91S WCI  31
STERLING*      CLOUDY    34  27  75 CALM      29.94S
SAVANNA*       MOCLDY    32  27  82 SE5       29.93F WCI  27
$$

ILZ003-004-008-010-011-017-018-282300-
NORTH CENTRAL ILLINOIS

CITY           SKY/WX    TMP DP  RH WIND       PRES   REMARKS
ROCKFORD       CLOUDY    31  26  82 S7        29.97S WCI  24
FREEPORT*      CLOUDY    29  25  86 E3        29.95F
ROCHELLE*      CLOUDY    32  29  90 S9        29.95R WCI  24
DE KALB*       CLOUDY    30  26  86 SE9       29.96S WCI  21
PERU*          MOCLDY    35  31  84 S9        29.96F WCI  28
$$

ILZ005-006-012>014-019>023-282300-
NORTHEAST ILLINOIS

CITY           SKY/WX    TMP DP  RH WIND       PRES   REMARKS
CHICAGO-OHARE  CLOUDY    31  24  75 S16G24    29.98F WCI  20
CHICAGO-MIDWAY CLOUDY    33  23  66 S13       30.00S WCI  24
AURORA         CLOUDY    33  26  75 SE10      29.97F HAZE    WCI  25
LANSING*       CLOUDY    31  23  71 S12G21    30.01F WCI  22
JOLIET*        CLOUDY    32  28  83 SE7       30.00S WCI  26
WAUKEGAN       CLOUDY    30  21  69 S13       29.97F WCI  20
DUPAGE AIRPORT CLOUDY    31  25  78 SE12      29.97F WCI  22
KANKAKEE*      MOCLDY    35  29  77 S15       30.00S WCI  26
WHEELING       CLOUDY    31  23  72 S14       30.00F WCI  21
MORRIS*        CLOUDY    35  32  87 S12       29.98S WCI  27
ROMEOVILLE*    CLOUDY    32  26  81 S13       29.98F WCI  22
NORTHERLY ISL    N/A     31  21  66 S9          N/A  WCI  23
$$

LMZ740>746-282300-
SOUTHERN LAKE MICHIGAN

STATION/POSITION SKY/WX   TEMP    WIND        PRES    VSBY  WAVE
                          AIR SEA DIR/SP/G                  HT/PER
                          (F)     (DEG/KT/KT) (MB)    (MI)  (FT/S)
SOUTHERN BUOY              33 42  160/ 21/ 25 1016.7F         6/ 6
WAUKEGAN HARBOR            32     190/ 15/ 18   N/A
HARRISON CRIB              31     170/ 23/ 26   N/A
BURNHAM HARBOR             31     170/  9/ 18   N/A
CALUMET HARBOR             31     160/ 10/ 17 1014.9F
MICHIGAN CITY              30     130/ 15/ 24   N/A
$$

ILZ025>027-034>036-040-047-049-050-058-095>099-282300-
WEST-CENTRAL ILLINOIS

CITY           SKY/WX    TMP DP  RH WIND       PRES   REMARKS
QUINCY         PTCLDY    46  35  65 SE7       29.87F
GALESBURG*     MOCLDY    37  31  81 SE8       29.91S WCI  30
MACOMB*        PTCLDY    38  33  81 SE8       29.92F WCI  32
JACKSONVILLE*  FAIR      40  34  77 SE10      29.93S
PITTSFIELD*    PTCLDY    47  37  68 SE6       29.90F
$$

ILZ028>032-037-038-041>044-048-051>054-059>061-282300-
CENTRAL ILLINOIS

CITY           SKY/WX    TMP DP  RH WIND       PRES   REMARKS
PONTIAC        PTCLDY    37  32  83 S14       29.98R WCI  28
BLOOMINGTON    PTCLDY    37  31  79 S22       29.96F WCI  26
DECATUR        PTCLDY    37  30  75 S15       30.00F WCI  28
PEORIA         MOCLDY    39  30  70 S13       29.95R WCI  31
LACON*         MOCLDY    35  29  78 S9        29.95S WCI  28
LINCOLN*       PTCLDY    38  32  77 S10       29.97F WCI  32
SPRINGFIELD    PTCLDY    39  32  76 S14       29.96F WCI  31
TAYLORVILLE    PTCLDY    37  32  81 S13       29.98R WCI  29
$$

ILZ033-039-045-046-055>057-062-063-282300-
EAST-CENTRAL ILLINOIS

CITY           SKY/WX    TMP DP  RH WIND       PRES   REMARKS
CHAMPAIGN      PTCLDY    37  30  75 S20G28    30.00F WCI  27
DANVILLE*      CLEAR     35  28  77 S16       30.00F WCI  25
RANTOUL*       PTCLDY    37  32  81 S13       30.00F WCI  29
MATTOON        CLEAR     37  30  75 S16       30.01F WCI  28
PARIS*         CLEAR     37  31  78 S17       30.06F WCI  28
$$

ILZ079-100>102-282300-
SOUTHWEST ILLINOIS

CITY           SKY/WX    TMP DP  RH WIND       PRES   REMARKS
ALTON          MOCLDY    46  32  57 S13G21    29.96F
BELLEVILLE     PTCLDY    45  35  67 S12       29.98F
CAHOKIA*       PTCLDY    50  34  54 S13G20    29.96F
SPARTA*        PTCLDY    44  33  65 S15G24    30.01F
$$

ILZ064>066-069>071-074>076-080>082-084>086-088>090-092>094-282300-
SOUTH-CENTRAL ILLINOIS

CITY           SKY/WX    TMP DP  RH WIND       PRES   REMARKS
CARBONDALE     CLEAR     46  29  51 S24G31    30.05F
CAIRO*         CLEAR     50  30  46 S8        30.11F
EFFINGHAM*     CLEAR     40  30  67 SE10      30.02F
MARION         PTCLDY    46  32  57 S16G28    30.07F
MT. VERNON     CLEAR     45  30  57 S14G22    30.05F
CENTRALIA*     CLEAR     43  32  65 S15       30.01F
SALEM*           N/A     45  32  59 S13G20    30.02F
METROPOLIS*    CLEAR     48  29  47 S12         N/A
$$

ILZ067-068-072-073-078-083-087-091-282300-
SOUTHEAST ILLINOIS

CITY           SKY/WX    TMP DP  RH WIND       PRES   REMARKS
LAWRENCEVILLE  CLEAR     39  30  70 S15       30.10F WCI  31
FLORA*         CLEAR     42  32  67 S15G21    30.05F
FAIRFIELD*     CLEAR     44  32  63 S12       30.05F
HARRISBURG*    CLEAR     45  30  55 S10G17    30.09F
ROBINSON*      CLEAR     39  30  71 S15       30.10S WCI  30
CARMI*         CLEAR     44  34  69 S13G18    30.08F
$$

ABBREVIATIONS USED IN REMARKS
   TC - TEMPERATURE IN CELSIUS
  WCI - WIND CHILL INDEX
   HX - HEAT INDEX
  VSB - VISIBILITY
$$




USA.gov is the U.S. government's official web portal to all federal, state and local government web resources and services.